When you browse on this site, cookies collect data to enhance your experience and personalize the content and advertising you see.
Visit our Privacy Policy to learn more. By continuing to use the site, you agree to this use of cookies and data.
  • In Hungary
  • List of Countries
  • For 7 days
  • Water Temperature
  • Weather Map
  • News
  • Weather Widgets
  • user-avatar
    Login

    Hourly Weather Nanyuki

    Today, 8 December, Sunday

    Time Temperature Precipitation Wind Pressure Humidity
    00:00 +16°C° 0.1 mm 1 mps 603 mmHg 91%
    01:00 +15°C° 0.1 mm 1 mps 602 mmHg 91%
    02:00 +15°C° 0 mm 1 mps 602 mmHg 92%
    03:00 +16°C° 0 mm 1 mps 602 mmHg 90%
    04:00 +16°C° 0 mm 1 mps 603 mmHg 87%
    05:00 +16°C° 0 mm 2 mps 603 mmHg 84%
    06:00 +17°C° 0 mm 2 mps 604 mmHg 78%
    07:00 +19°C° 0 mm 3 mps 605 mmHg 71%
    08:00 +20°C° 0 mm 3 mps 605 mmHg 65%
    09:00 +21°C° 0 mm 4 mps 605 mmHg 62%
    10:00 +22°C° 0 mm 4 mps 605 mmHg 60%
    11:00 +23°C° 0 mm 4 mps 605 mmHg 57%
    12:00 +22°C° 0 mm 4 mps 604 mmHg 60%
    13:00 +22°C° 0 mm 4 mps 604 mmHg 62%
    14:00 +22°C° 0 mm 4 mps 603 mmHg 64%
    15:00 +21°C° 0.1 mm 4 mps 603 mmHg 70%
    16:00 +20°C° 0.1 mm 4 mps 602 mmHg 75%
    17:00 +19°C° 0.1 mm 3 mps 602 mmHg 81%
    18:00 +18°C° 0 mm 3 mps 602 mmHg 83%
    19:00 +17°C° 0 mm 2 mps 603 mmHg 85%
    20:00 +16°C° 0 mm 2 mps 603 mmHg 88%
    21:00 +16°C° 0 mm 2 mps 603 mmHg 88%
    22:00 +15°C° 0 mm 2 mps 602 mmHg 89%
    23:00 +15°C° 0 mm 2 mps 602 mmHg 90%

    Tomorrow, 9 December, Monday

    Time Temperature Precipitation Wind Pressure Humidity
    00:00 +15°C° 0 mm 2 mps 602 mmHg 89%
    01:00 +14°C° 0 mm 1 mps 602 mmHg 89%
    02:00 +14°C° 0 mm 1 mps 601 mmHg 89%
    03:00 +14°C° 0 mm 1 mps 602 mmHg 89%
    04:00 +14°C° 0 mm 1 mps 602 mmHg 88%
    05:00 +14°C° 0 mm 1 mps 602 mmHg 88%
    06:00 +16°C° 0 mm 1 mps 603 mmHg 84%
    07:00 +18°C° 0 mm 1 mps 604 mmHg 80%
    08:00 +19°C° 0 mm 2 mps 605 mmHg 75%
    09:00 +20°C° 0.1 mm 2 mps 605 mmHg 72%
    10:00 +21°C° 0.1 mm 3 mps 605 mmHg 69%
    11:00 +24°C° 0.1 mm 3 mps 605 mmHg 67%
    12:00 +22°C° 1 mm 3 mps 605 mmHg 70%
    13:00 +22°C° 1 mm 3 mps 604 mmHg 73%
    14:00 +21°C° 1 mm 3 mps 603 mmHg 77%
    15:00 +20°C° 0.6 mm 3 mps 603 mmHg 81%
    16:00 +19°C° 0.6 mm 3 mps 603 mmHg 85%
    17:00 +18°C° 0.6 mm 2 mps 602 mmHg 89%
    18:00 +18°C° 0.5 mm 2 mps 603 mmHg 90%
    19:00 +17°C° 0.5 mm 2 mps 603 mmHg 92%
    20:00 +16°C° 0.5 mm 2 mps 604 mmHg 93%
    21:00 +16°C° 0.5 mm 2 mps 603 mmHg 94%
    22:00 +16°C° 0.5 mm 2 mps 603 mmHg 94%
    23:00 +16°C° 0.5 mm 2 mps 603 mmHg 95%

    Day after tomorrow, 10 December, Tuesday

    Time Temperature Precipitation Wind Pressure Humidity
    00:00 +16°C° 2 mm 2 mps 603 mmHg 95%
    01:00 +16°C° 2 mm 2 mps 603 mmHg 96%
    02:00 +16°C° 2 mm 3 mps 603 mmHg 97%
    03:00 +16°C° 1.6 mm 2 mps 603 mmHg 97%
    04:00 +16°C° 1.6 mm 2 mps 603 mmHg 97%
    05:00 +16°C° 1.6 mm 2 mps 603 mmHg 97%
    06:00 +16°C° 0.1 mm 2 mps 604 mmHg 94%
    07:00 +17°C° 0.1 mm 3 mps 604 mmHg 91%
    08:00 +17°C° 0.1 mm 3 mps 605 mmHg 88%
    09:00 +19°C° 0.3 mm 3 mps 605 mmHg 83%
    10:00 +20°C° 0.3 mm 3 mps 605 mmHg 79%
    11:00 +21°C° 0.3 mm 3 mps 605 mmHg 74%
    12:00 +21°C° 0.7 mm 3 mps 605 mmHg 75%
    13:00 +21°C° 0.7 mm 3 mps 604 mmHg 77%
    14:00 +21°C° 0.7 mm 3 mps 603 mmHg 78%
    15:00 +20°C° 0.5 mm 3 mps 603 mmHg 82%
    16:00 +19°C° 0.5 mm 3 mps 603 mmHg 86%
    17:00 +18°C° 0.5 mm 2 mps 602 mmHg 90%
    18:00 +17°C° 0.3 mm 2 mps 603 mmHg 91%
    19:00 +17°C° 0.3 mm 2 mps 603 mmHg 92%
    20:00 +16°C° 0.3 mm 1 mps 603 mmHg 93%
    21:00 +16°C° 0.1 mm 1 mps 603 mmHg 93%
    22:00 +15°C° 0.1 mm 1 mps 603 mmHg 93%
    23:00 +15°C° 0.1 mm 1 mps 603 mmHg 93%

    11 December, Wednesday

    Time Temperature Precipitation Wind Pressure Humidity
    00:00 +15°C° 0 mm 1 mps 603 mmHg 93%
    01:00 +14°C° 0 mm 1 mps 602 mmHg 93%
    02:00 +14°C° 0 mm 1 mps 602 mmHg 92%
    03:00 +13°C° 0 mm 1 mps 602 mmHg 92%
    04:00 +13°C° 0 mm 1 mps 602 mmHg 91%
    05:00 +13°C° 0 mm 1 mps 602 mmHg 90%
    06:00 +15°C° 0 mm 1 mps 603 mmHg 85%
    07:00 +18°C° 0 mm 1 mps 604 mmHg 81%
    08:00 +20°C° 0 mm 1 mps 605 mmHg 76%
    09:00 +21°C° 0.2 mm 1 mps 605 mmHg 73%
    10:00 +21°C° 0.2 mm 2 mps 605 mmHg 70%
    11:00 +23°C° 0.2 mm 2 mps 605 mmHg 67%
    12:00 +21°C° 1.1 mm 2 mps 605 mmHg 71%
    13:00 +21°C° 1.1 mm 2 mps 604 mmHg 74%
    14:00 +20°C° 1.1 mm 2 mps 603 mmHg 78%
    15:00 +19°C° 0.8 mm 2 mps 603 mmHg 81%
    16:00 +19°C° 0.8 mm 2 mps 603 mmHg 84%
    17:00 +18°C° 0.8 mm 2 mps 602 mmHg 88%
    18:00 +18°C° 0.1 mm 1 mps 602 mmHg 89%
    19:00 +16°C° 0.1 mm 1 mps 603 mmHg 91%
    20:00 +15°C° 0.1 mm 1 mps 603 mmHg 93%
    21:00 +15°C° 0 mm 1 mps 603 mmHg 92%
    22:00 +14°C° 0 mm 1 mps 603 mmHg 91%
    23:00 +14°C° 0 mm 1 mps 602 mmHg 90%

    12 December, Thursday

    Time Temperature Precipitation Wind Pressure Humidity
    00:00 +13°C° 0 mm 1 mps 602 mmHg 89%
    01:00 +13°C° 0 mm 1 mps 602 mmHg 88%
    02:00 +13°C° 0 mm 1 mps 601 mmHg 88%
    03:00 +13°C° 0 mm 1 mps 601 mmHg 87%
    04:00 +12°C° 0 mm 1 mps 602 mmHg 86%
    05:00 +12°C° 0 mm 1 mps 602 mmHg 85%
    06:00 +14°C° 0 mm 1 mps 603 mmHg 80%
    07:00 +16°C° 0 mm 1 mps 604 mmHg 76%
    08:00 +19°C° 0 mm 1 mps 605 mmHg 72%
    09:00 +21°C° 0.1 mm 1 mps 605 mmHg 67%
    10:00 +22°C° 0.1 mm 1 mps 605 mmHg 63%
    11:00 +23°C° 0.1 mm 2 mps 605 mmHg 59%
    12:00 +23°C° 0.5 mm 2 mps 605 mmHg 61%
    13:00 +23°C° 0.5 mm 2 mps 604 mmHg 63%
    14:00 +22°C° 0.5 mm 3 mps 603 mmHg 66%
    15:00 +21°C° 0.8 mm 2 mps 603 mmHg 72%
    16:00 +20°C° 0.8 mm 2 mps 603 mmHg 79%
    17:00 +19°C° 0.8 mm 2 mps 602 mmHg 86%
    18:00 +18°C° 0.3 mm 1 mps 602 mmHg 88%
    19:00 +16°C° 0.3 mm 1 mps 602 mmHg 90%
    20:00 +15°C° 0.3 mm 1 mps 602 mmHg 92%
    21:00 +15°C° 0 mm 1 mps 602 mmHg 91%
    22:00 +14°C° 0 mm 1 mps 602 mmHg 91%
    23:00 +14°C° 0 mm 1 mps 602 mmHg 90%

    13 December, Friday

    Time Temperature Precipitation Wind Pressure Humidity
    00:00 +14°C° 0 mm 1 mps 602 mmHg 89%
    01:00 +13°C° 0 mm 1 mps 601 mmHg 89%
    02:00 +13°C° 0 mm 1 mps 601 mmHg 88%
    03:00 +13°C° 0 mm 1 mps 601 mmHg 86%
    04:00 +13°C° 0 mm 1 mps 602 mmHg 85%
    05:00 +13°C° 0 mm 1 mps 602 mmHg 83%
    06:00 +15°C° 0 mm 1 mps 603 mmHg 79%
    07:00 +18°C° 0 mm 1 mps 604 mmHg 74%
    08:00 +20°C° 0 mm 1 mps 605 mmHg 70%
    09:00 +21°C° 0 mm 1 mps 606 mmHg 65%
    10:00 +21°C° 0 mm 2 mps 606 mmHg 61%
    11:00 +23°C° 0 mm 2 mps 606 mmHg 57%
    12:00 +23°C° 0.3 mm 2 mps 605 mmHg 62%
    13:00 +21°C° 0.3 mm 2 mps 604 mmHg 67%
    14:00 +20°C° 0.3 mm 3 mps 603 mmHg 72%
    15:00 +20°C° 0.6 mm 2 mps 603 mmHg 76%
    16:00 +19°C° 0.6 mm 2 mps 602 mmHg 80%
    17:00 +19°C° 0.6 mm 1 mps 602 mmHg 84%
    18:00 +18°C° 0.1 mm 1 mps 602 mmHg 86%
    19:00 +16°C° 0.1 mm 1 mps 603 mmHg 87%
    20:00 +15°C° 0.1 mm 1 mps 603 mmHg 89%
    21:00 +15°C° 0 mm 1 mps 603 mmHg 89%
    22:00 +14°C° 0 mm 1 mps 602 mmHg 89%
    23:00 +14°C° 0 mm 1 mps 602 mmHg 90%
    Show more